Weather History for K8D3 - March, 2014

Change the Weather History Date:

Friday, March 7, 2014

  Actual Average Record
Temperature  
Mean Temperature 23 °F 26 °F  
Max Temperature 34 °F 35 °F 70 °F (1987)
Min Temperature 11 °F 17 °F -13 °F (1960)
Degree Days  
Heating Degree Days 42 39  
Month to date heating degree days 377 282  
Since 1 July heating degree days 7194 6541  
Cooling Degree Days 0 0  
Month to date cooling degree days 0 0  
Year to date cooling degree days 0 0  
Moisture  
Dew Point 17 °F    
Average Humidity 82    
Maximum Humidity 100    
Minimum Humidity 63    
Precipitation  
Precipitation 0.02 in 0.03 in 0.53 in (1983)
Month to date precipitation 0.11 0.25  
Year to date precipitation 0.73 1.11  
Snow  
Snow 0.00 in - - ()
Month to date snowfall 1.1  
Since 1 July snowfall 23.0  
Snow Depth 0.00 in    
Sea Level Pressure  
Sea Level Pressure 30.13 in    
Wind  
Wind Speed 20 mph (North)    
Max Wind Speed 30 mph    
Max Gust Speed 37 mph    
T = Trace of Precipitation, MM = Missing Value Source: NWS Daily Summary

Daily Weather History Graph

Daily Weather History Graph

Search for Another Location

Airport or City:

Trip Planner

Search our weather history database for the weather conditions in past years. The results will help you decide how hot, cold, wet, or windy it might be!

Date:

Astronomy

Mar. 07, 2014 Rise Set
Actual Time 6:55 AM CST 6:23 PM CST
Civil Twilight 6:25 AM CST 6:52 PM CST
Nautical Twilight 5:51 AM CST 7:27 PM CST
Astronomical Twilight 5:16 AM CST 8:01 PM CST
Moon 10:30 AM CST (3/7) 12:47 AM CST (3/7)
Length of Visible Light 12h 26m
Length of Day
11h 27m
Waxing Crescent, 42% of the Moon is Illuminated
Mar 7
Waxing Crescent
Mar 8
First Quarter
Mar 16
Full
Mar 23
Last Quarter
Mar 30
New

Hourly Weather History & Observations

Time (CST) Temp. Windchill Dew Point Humidity Pressure Visibility Wind Dir Wind Speed Gust Speed Precip Events Conditions
12:56 AM 30.0 °F - 28.9 °F 96% 29.78 in - Calm Calm - N/A   Unknown
1:56 AM 33.1 °F 22.2 °F 30.0 °F 89% 29.80 in - NNW 17.3 mph - N/A   Unknown
2:56 AM 32.0 °F 18.9 °F 30.0 °F 92% 29.81 in - North 24.2 mph - 0.02 in   Unknown
3:56 AM 28.0 °F 12.5 °F 24.1 °F 85% 29.86 in - North 28.8 mph - N/A   Unknown
4:56 AM 26.1 °F 11.3 °F 21.0 °F 81% 29.90 in - North 23.0 mph 34.5 mph N/A   Unknown
5:56 AM 23.0 °F 7.2 °F 18.0 °F 81% 29.96 in - North 23.0 mph - N/A   Unknown
6:56 AM 21.9 °F 6.9 °F 16.0 °F 78% 30.01 in - North 19.6 mph 27.6 mph N/A   Unknown
7:56 AM 21.0 °F 4.6 °F 15.1 °F 78% 30.04 in - North 23.0 mph 31.1 mph N/A   Unknown
8:56 AM 19.0 °F 1.6 °F 14.0 °F 81% 30.09 in - North 24.2 mph 31.1 mph N/A   Unknown
9:56 AM 19.9 °F 3.9 °F 15.1 °F 81% 30.11 in - North 20.7 mph 31.1 mph N/A   Unknown
10:56 AM 21.9 °F 5.5 °F 16.0 °F 78% 30.11 in - North 24.2 mph - N/A   Unknown
11:56 AM 24.1 °F 7.7 °F 16.0 °F 71% 30.14 in - North 26.5 mph 32.2 mph N/A   Unknown
12:56 PM 25.0 °F 9.9 °F 17.1 °F 72% 30.16 in - North 23.0 mph 31.1 mph N/A   Unknown
1:56 PM 26.1 °F 11.0 °F 16.0 °F 66% 30.16 in - North 24.2 mph 33.4 mph N/A   Unknown
2:56 PM 26.1 °F 10.4 °F 16.0 °F 66% 30.18 in - North 26.5 mph 32.2 mph N/A   Unknown
3:56 PM 24.1 °F 9.0 °F 16.0 °F 71% 30.21 in - North 21.9 mph 29.9 mph N/A   Unknown
4:56 PM 24.1 °F 8.7 °F 15.1 °F 69% 30.24 in - North 23.0 mph 28.8 mph N/A   Unknown
5:56 PM 21.9 °F 6.5 °F 14.0 °F 72% 30.27 in - North 20.7 mph - N/A   Unknown
6:56 PM 19.0 °F 6.1 °F 14.0 °F 81% 30.31 in - NNE 12.7 mph - N/A   Unknown
7:56 PM 17.1 °F 2.5 °F 14.0 °F 88% 30.33 in - NNE 15.0 mph - N/A   Unknown
8:56 PM 15.1 °F 1.1 °F 10.9 °F 84% 30.37 in - North 12.7 mph - N/A   Unknown
9:56 PM 14.0 °F -0.8 °F 9.0 °F 80% 30.38 in - North 13.8 mph - N/A   Unknown
10:56 PM 12.0 °F -1.3 °F 8.1 °F 84% 30.39 in - North 10.4 mph - N/A   Unknown
11:56 PM 10.9 °F -4.1 °F 7.0 °F 84% 30.40 in - North 12.7 mph - N/A   Unknown